Time,TemperatureF,DewpointF,PressureIn,WindDirection,WindDirectionDegrees,WindSpeedMPH,WindSpeedGustMPH,Humidity,HourlyPrecipIn,Conditions,Clouds,dailyrainin,SoftwareType,DateUTC
2013-06-20 00:01:00,54.2,50.4,30.17,NW,308,1.4,3.0,87,0.00,,,0.00,WUHU216DAVISVP2,2013-06-20 04:01:00,
2013-06-20 00:06:00,56.5,49.8,30.18,West,281,1.0,3.0,78,0.00,,,0.00,WUHU216DAVISVP2,2013-06-20 04:06:00,
2013-06-20 00:11:00,57.1,50.0,30.17,WNW,295,1.0,3.0,77,0.00,,,0.00,WUHU216DAVISVP2,2013-06-20 04:11:00,
2013-06-20 00:16:00,56.4,50.4,30.17,WNW,284,0.0,3.0,80,0.00,,,0.00,WUHU216DAVISVP2,2013-06-20 04:16:00,
2013-06-20 00:21:00,55.4,50.0,30.17,WNW,284,1.0,3.0,82,0.00,,,0.00,WUHU216DAVISVP2,2013-06-20 04:21:00,
2013-06-20 00:26:00,54.5,50.1,30.17,WNW,284,0.0,1.0,85,0.00,,,0.00,WUHU216DAVISVP2,2013-06-20 04:26:00,
2013-06-20 00:31:00,53.8,50.0,30.18,WNW,284,1.0,1.0,87,0.00,,,0.00,WUHU216DAVISVP2,2013-06-20 04:31:00,
2013-06-20 00:36:00,53.3,50.1,30.18,WNW,284,0.0,1.0,89,0.00,,,0.00,WUHU216DAVISVP2,2013-06-20 04:36:00,
2013-06-20 00:41:00,53.1,49.6,30.18,WNW,284,0.0,1.0,88,0.00,,,0.00,WUHU216DAVISVP2,2013-06-20 04:41:00,
2013-06-20 00:46:00,52.9,49.4,30.18,WNW,283,0.0,1.0,88,0.00,,,0.00,WUHU216DAVISVP2,2013-06-20 04:46:00,
2013-06-20 00:51:00,52.6,49.4,30.18,WNW,284,0.0,1.0,89,0.00,,,0.00,WUHU216DAVISVP2,2013-06-20 04:51:00,
2013-06-20 00:56:00,52.2,49.0,30.18,WNW,284,0.0,1.0,89,0.00,,,0.00,WUHU216DAVISVP2,2013-06-20 04:56:00,
2013-06-20 01:01:00,51.8,48.9,30.19,WNW,284,0.0,1.0,90,0.00,,,0.00,WUHU216DAVISVP2,2013-06-20 05:01:00,
2013-06-20 01:06:00,51.6,49.0,30.19,WNW,284,0.0,1.0,91,0.00,,,0.00,WUHU216DAVISVP2,2013-06-20 05:06:00,
2013-06-20 01:11:00,51.3,48.7,30.19,WNW,284,0.0,1.0,91,0.00,,,0.00,WUHU216DAVISVP2,2013-06-20 05:11:00,
2013-06-20 01:16:00,51.1,48.8,30.19,WNW,284,0.0,1.0,92,0.00,,,0.00,WUHU216DAVISVP2,2013-06-20 05:16:00,
2013-06-20 01:21:00,51.0,48.7,30.19,WNW,284,0.0,0.0,92,0.00,,,0.00,WUHU216DAVISVP2,2013-06-20 05:21:00,
2013-06-20 01:26:00,50.9,48.9,30.19,WNW,284,1.0,1.0,93,0.00,,,0.00,WUHU216DAVISVP2,2013-06-20 05:26:00,
2013-06-20 01:31:00,50.7,48.7,30.19,WNW,283,0.0,1.0,93,0.00,,,0.00,WUHU216DAVISVP2,2013-06-20 05:31:00,
2013-06-20 01:36:00,50.4,48.4,30.19,WNW,284,0.0,1.0,93,0.00,,,0.00,WUHU216DAVISVP2,2013-06-20 05:36:00,
2013-06-20 01:41:00,50.2,48.5,30.19,WNW,284,1.0,1.0,94,0.00,,,0.00,WUHU216DAVISVP2,2013-06-20 05:41:00,
2013-06-20 01:46:00,50.0,48.3,30.19,WNW,284,0.0,1.0,94,0.00,,,0.00,WUHU216DAVISVP2,2013-06-20 05:46:00,
2013-06-20 01:51:00,49.9,48.2,30.19,WNW,284,0.0,1.0,94,0.00,,,0.00,WUHU216DAVISVP2,2013-06-20 05:51:00,
2013-06-20 01:56:00,49.9,48.5,30.19,WNW,284,0.0,1.0,95,0.00,,,0.00,WUHU216DAVISVP2,2013-06-20 05:56:00,
2013-06-20 02:01:00,49.7,48.3,30.19,WNW,284,0.0,1.0,95,0.00,,,0.00,WUHU216DAVISVP2,2013-06-20 06:01:00,
2013-06-20 02:06:00,49.4,48.0,30.20,WNW,284,0.0,1.0,95,0.00,,,0.00,WUHU216DAVISVP2,2013-06-20 06:06:00,
2013-06-20 02:11:00,49.4,48.0,30.20,WNW,284,1.0,1.0,95,0.00,,,0.00,WUHU216DAVISVP2,2013-06-20 06:11:00,
2013-06-20 02:16:00,49.2,47.8,30.20,West,281,1.0,1.0,95,0.00,,,0.00,WUHU216DAVISVP2,2013-06-20 06:16:00,
2013-06-20 02:21:00,49.1,47.7,30.20,West,274,1.0,1.0,95,0.00,,,0.00,WUHU216DAVISVP2,2013-06-20 06:21:00,
2013-06-20 02:26:00,48.9,47.5,30.20,West,274,0.0,1.0,95,0.00,,,0.00,WUHU216DAVISVP2,2013-06-20 06:26:00,
2013-06-20 02:31:00,48.6,47.2,30.20,West,274,0.0,1.0,95,0.00,,,0.00,WUHU216DAVISVP2,2013-06-20 06:31:00,
2013-06-20 02:36:00,48.4,47.3,30.20,West,274,0.0,1.0,96,0.00,,,0.00,WUHU216DAVISVP2,2013-06-20 06:36:00,
2013-06-20 02:41:00,48.2,47.1,30.20,West,274,0.0,0.0,96,0.00,,,0.00,WUHU216DAVISVP2,2013-06-20 06:41:00,
2013-06-20 02:46:00,48.1,47.0,30.20,West,274,0.0,0.0,96,0.00,,,0.00,WUHU216DAVISVP2,2013-06-20 06:46:00,
2013-06-20 02:51:00,47.9,46.8,30.20,West,274,0.0,0.0,96,0.00,,,0.00,WUHU216DAVISVP2,2013-06-20 06:51:00,
2013-06-20 02:56:00,47.8,46.7,30.21,West,274,0.0,0.0,96,0.00,,,0.00,WUHU216DAVISVP2,2013-06-20 06:56:00,
2013-06-20 03:01:00,47.7,46.6,30.21,West,274,0.0,0.0,96,0.00,,,0.00,WUHU216DAVISVP2,2013-06-20 07:01:00,
2013-06-20 03:06:00,47.6,46.5,30.21,West,274,0.0,0.0,96,0.00,,,0.00,WUHU216DAVISVP2,2013-06-20 07:06:00,
2013-06-20 03:11:00,47.6,46.8,30.20,West,274,0.0,0.0,97,0.00,,,0.00,WUHU216DAVISVP2,2013-06-20 07:11:00,
2013-06-20 03:16:00,47.5,46.7,30.20,West,274,0.0,0.0,97,0.00,,,0.00,WUHU216DAVISVP2,2013-06-20 07:16:00,
2013-06-20 03:21:00,47.3,46.2,30.21,West,274,0.0,0.0,96,0.00,,,0.00,WUHU216DAVISVP2,2013-06-20 07:21:00,
2013-06-20 03:26:00,47.2,46.4,30.21,West,274,0.0,0.0,97,0.00,,,0.00,WUHU216DAVISVP2,2013-06-20 07:26:00,
2013-06-20 03:31:00,47.1,46.3,30.21,West,274,0.0,0.0,97,0.00,,,0.00,WUHU216DAVISVP2,2013-06-20 07:31:00,
2013-06-20 03:36:00,47.0,46.2,30.21,West,274,0.0,0.0,97,0.00,,,0.00,WUHU216DAVISVP2,2013-06-20 07:36:00,
2013-06-20 03:41:00,46.7,45.9,30.21,West,274,0.0,0.0,97,0.00,,,0.00,WUHU216DAVISVP2,2013-06-20 07:41:00,
2013-06-20 03:46:00,46.4,45.6,30.21,West,274,0.0,0.0,97,0.00,,,0.00,WUHU216DAVISVP2,2013-06-20 07:46:00,
2013-06-20 03:51:00,46.4,45.6,30.21,West,274,0.0,0.0,97,0.00,,,0.00,WUHU216DAVISVP2,2013-06-20 07:51:00,
2013-06-20 03:56:00,46.4,45.6,30.21,West,274,0.0,0.0,97,0.00,,,0.00,WUHU216DAVISVP2,2013-06-20 07:56:00,
2013-06-20 04:01:00,46.4,45.6,30.21,West,274,0.0,0.0,97,0.00,,,0.00,WUHU216DAVISVP2,2013-06-20 08:01:00,
2013-06-20 04:06:00,46.1,45.3,30.21,West,274,0.0,0.0,97,0.00,,,0.00,WUHU216DAVISVP2,2013-06-20 08:06:00,
2013-06-20 04:11:00,46.2,45.4,30.22,West,274,0.0,0.0,97,0.00,,,0.00,WUHU216DAVISVP2,2013-06-20 08:11:00,
2013-06-20 04:16:00,46.2,45.4,30.22,West,274,0.0,0.0,97,0.00,,,0.00,WUHU216DAVISVP2,2013-06-20 08:16:00,
2013-06-20 04:21:00,45.9,45.1,30.22,West,274,0.0,0.0,97,0.00,,,0.00,WUHU216DAVISVP2,2013-06-20 08:21:00,
2013-06-20 04:26:00,45.8,45.0,30.22,West,274,0.0,0.0,97,0.00,,,0.00,WUHU216DAVISVP2,2013-06-20 08:26:00,
2013-06-20 04:31:00,45.9,45.1,30.22,West,274,0.0,0.0,97,0.00,,,0.00,WUHU216DAVISVP2,2013-06-20 08:31:00,
2013-06-20 04:36:00,46.1,45.3,30.22,West,274,0.0,0.0,97,0.00,,,0.00,WUHU216DAVISVP2,2013-06-20 08:36:00,
2013-06-20 04:41:00,46.0,45.4,30.22,West,274,0.0,0.0,98,0.00,,,0.00,WUHU216DAVISVP2,2013-06-20 08:41:00,
2013-06-20 04:46:00,46.0,45.2,30.22,West,274,0.0,0.0,97,0.00,,,0.00,WUHU216DAVISVP2,2013-06-20 08:46:00,
2013-06-20 04:51:00,46.0,45.2,30.22,West,274,0.0,0.0,97,0.00,,,0.00,WUHU216DAVISVP2,2013-06-20 08:51:00,
2013-06-20 04:56:00,45.9,45.1,30.23,West,274,0.0,0.0,97,0.00,,,0.00,WUHU216DAVISVP2,2013-06-20 08:56:00,
2013-06-20 05:01:00,45.9,45.1,30.23,West,274,0.0,0.0,97,0.00,,,0.00,WUHU216DAVISVP2,2013-06-20 09:01:00,
2013-06-20 05:06:00,45.9,45.1,30.23,West,274,0.0,0.0,97,0.00,,,0.00,WUHU216DAVISVP2,2013-06-20 09:06:00,
2013-06-20 05:11:00,45.6,44.8,30.23,West,274,0.0,0.0,97,0.00,,,0.00,WUHU216DAVISVP2,2013-06-20 09:11:00,
2013-06-20 05:16:00,45.6,44.8,30.23,West,274,0.0,0.0,97,0.00,,,0.00,WUHU216DAVISVP2,2013-06-20 09:16:00,
2013-06-20 05:21:00,45.5,44.7,30.23,West,274,0.0,0.0,97,0.00,,,0.00,WUHU216DAVISVP2,2013-06-20 09:21:00,
2013-06-20 05:26:00,45.5,44.9,30.23,West,274,0.0,0.0,98,0.00,,,0.00,WUHU216DAVISVP2,2013-06-20 09:26:00,
2013-06-20 05:31:00,45.5,44.9,30.24,West,274,0.0,0.0,98,0.00,,,0.00,WUHU216DAVISVP2,2013-06-20 09:31:00,
2013-06-20 05:36:00,45.5,44.9,30.24,West,274,0.0,0.0,98,0.00,,,0.00,WUHU216DAVISVP2,2013-06-20 09:36:00,
2013-06-20 05:41:00,45.3,44.8,30.24,West,274,0.0,0.0,98,0.00,,,0.00,WUHU216DAVISVP2,2013-06-20 09:41:00,
2013-06-20 05:46:00,45.3,44.7,30.24,West,274,0.0,0.0,98,0.00,,,0.00,WUHU216DAVISVP2,2013-06-20 09:46:00,
2013-06-20 05:51:00,45.2,44.6,30.24,West,274,0.0,0.0,98,0.00,,,0.00,WUHU216DAVISVP2,2013-06-20 09:51:00,
2013-06-20 05:56:00,45.6,45.0,30.25,West,274,0.0,0.0,98,0.00,,,0.00,WUHU216DAVISVP2,2013-06-20 09:56:00,
2013-06-20 06:01:00,45.9,45.3,30.25,West,274,0.0,0.0,98,0.00,,,0.00,WUHU216DAVISVP2,2013-06-20 10:01:00,
2013-06-20 06:06:00,46.6,46.0,30.25,West,274,0.0,0.0,98,0.00,,,0.00,WUHU216DAVISVP2,2013-06-20 10:06:00,
2013-06-20 06:11:00,47.5,46.9,30.25,West,274,0.0,0.0,98,0.00,,,0.00,WUHU216DAVISVP2,2013-06-20 10:11:00,
2013-06-20 06:16:00,47.9,47.3,30.25,West,274,0.0,0.0,98,0.00,,,0.00,WUHU216DAVISVP2,2013-06-20 10:16:00,
2013-06-20 06:21:00,48.8,48.2,30.26,West,274,0.0,0.0,98,0.00,,,0.00,WUHU216DAVISVP2,2013-06-20 10:21:00,
2013-06-20 06:26:00,50.0,49.4,30.26,West,274,0.0,0.0,98,0.00,,,0.00,WUHU216DAVISVP2,2013-06-20 10:26:00,
2013-06-20 06:31:00,50.0,49.2,30.26,West,274,0.0,0.0,97,0.00,,,0.00,WUHU216DAVISVP2,2013-06-20 10:31:00,
2013-06-20 06:36:00,50.7,49.9,30.26,West,274,0.0,0.0,97,0.00,,,0.00,WUHU216DAVISVP2,2013-06-20 10:36:00,
2013-06-20 06:41:00,51.7,51.2,30.26,West,274,0.0,0.0,98,0.00,,,0.00,WUHU216DAVISVP2,2013-06-20 10:41:00,
2013-06-20 06:46:00,52.1,51.3,30.26,West,274,0.0,0.0,97,0.00,,,0.00,WUHU216DAVISVP2,2013-06-20 10:46:00,
2013-06-20 06:51:00,52.7,51.6,30.26,West,274,0.0,0.0,96,0.00,,,0.00,WUHU216DAVISVP2,2013-06-20 10:51:00,
2013-06-20 06:56:00,53.1,51.4,30.26,West,274,0.0,0.0,94,0.00,,,0.00,WUHU216DAVISVP2,2013-06-20 10:56:00,
2013-06-20 07:01:00,54.1,52.4,30.26,West,274,0.0,0.0,94,0.00,,,0.00,WUHU216DAVISVP2,2013-06-20 11:01:00,
2013-06-20 07:06:00,54.4,52.1,30.27,West,274,0.0,0.0,92,0.00,,,0.00,WUHU216DAVISVP2,2013-06-20 11:06:00,
2013-06-20 07:11:00,55.3,52.4,30.27,West,273,0.0,0.0,90,0.00,,,0.00,WUHU216DAVISVP2,2013-06-20 11:11:00,
2013-06-20 07:16:00,55.8,52.3,30.27,WSW,255,0.0,0.0,88,0.00,,,0.00,WUHU216DAVISVP2,2013-06-20 11:16:00,
2013-06-20 07:21:00,55.9,52.1,30.27,WSW,256,0.0,0.0,87,0.00,,,0.00,WUHU216DAVISVP2,2013-06-20 11:21:00,
2013-06-20 07:26:00,56.5,52.4,30.27,West,259,0.0,0.0,86,0.00,,,0.00,WUHU216DAVISVP2,2013-06-20 11:26:00,
2013-06-20 07:31:00,57.0,51.9,30.27,NNE,19,2.0,2.0,83,0.00,,,0.00,WUHU216DAVISVP2,2013-06-20 11:31:00,
2013-06-20 07:36:00,56.7,51.0,30.27,East,82,1.0,2.0,81,0.00,,,0.00,WUHU216DAVISVP2,2013-06-20 11:36:00,
2013-06-20 07:41:00,56.6,51.2,30.28,North,359,2.0,2.0,82,0.00,,,0.00,WUHU216DAVISVP2,2013-06-20 11:41:00,
2013-06-20 07:46:00,56.7,51.6,30.28,North,4,1.3,2.0,83,0.00,,,0.00,WUHU216DAVISVP2,2013-06-20 11:46:00,
2013-06-20 07:51:00,57.0,51.9,30.28,ESE,102,1.1,2.0,83,0.00,,,0.00,WUHU216DAVISVP2,2013-06-20 11:51:00,
2013-06-20 07:56:00,57.2,51.5,30.28,NE,48,1.6,3.0,81,0.00,,,0.00,WUHU216DAVISVP2,2013-06-20 11:56:00,
2013-06-20 08:01:00,57.4,51.7,30.28,ENE,69,1.0,3.0,81,0.00,,,0.00,WUHU216DAVISVP2,2013-06-20 12:01:00,
2013-06-20 08:06:00,58.3,51.9,30.28,NE,37,1.9,4.0,79,0.00,,,0.00,WUHU216DAVISVP2,2013-06-20 12:06:00,
2013-06-20 08:11:00,58.8,51.7,30.28,NNE,31,1.2,4.0,77,0.00,,,0.00,WUHU216DAVISVP2,2013-06-20 12:11:00,
2013-06-20 08:16:00,59.7,52.6,30.28,NE,34,1.0,3.0,77,0.00,,,0.00,WUHU216DAVISVP2,2013-06-20 12:16:00,
2013-06-20 08:21:00,60.4,52.2,30.28,SW,236,1.0,3.0,74,0.00,,,0.00,WUHU216DAVISVP2,2013-06-20 12:21:00,
2013-06-20 08:26:00,61.1,53.6,30.28,ESE,105,0.0,2.0,76,0.00,,,0.00,WUHU216DAVISVP2,2013-06-20 12:26:00,
2013-06-20 08:31:00,62.2,53.9,30.28,ENE,64,1.0,2.0,74,0.00,,,0.00,WUHU216DAVISVP2,2013-06-20 12:31:00,
2013-06-20 08:35:00,62.6,54.3,30.28,SE,134,1.0,2.0,74,0.00,,,0.00,WUHU216DAVISVP2,2013-06-20 12:35:00,
2013-06-20 08:40:00,62.3,53.3,30.28,ESE,111,1.3,3.0,72,0.00,,,0.00,WUHU216DAVISVP2,2013-06-20 12:40:00,
2013-06-20 08:45:00,62.9,53.5,30.28,SSE,152,0.0,3.0,71,0.00,,,0.00,WUHU216DAVISVP2,2013-06-20 12:45:00,
2013-06-20 08:50:00,63.4,54.0,30.27,SW,223,1.3,3.0,71,0.00,,,0.00,WUHU216DAVISVP2,2013-06-20 12:50:00,
2013-06-20 08:55:00,62.8,53.4,30.27,SW,214,1.6,4.0,71,0.00,,,0.00,WUHU216DAVISVP2,2013-06-20 12:55:00,
2013-06-20 09:00:00,62.8,52.6,30.27,ESE,110,2.6,4.0,69,0.00,,,0.00,WUHU216DAVISVP2,2013-06-20 13:00:00,
2013-06-20 09:05:00,62.8,53.3,30.27,NE,45,1.5,4.0,71,0.00,,,0.00,WUHU216DAVISVP2,2013-06-20 13:05:00,
2013-06-20 09:10:00,62.8,52.9,30.27,South,178,1.2,4.0,70,0.00,,,0.00,WUHU216DAVISVP2,2013-06-20 13:10:00,
2013-06-20 09:15:00,63.2,52.9,30.27,SE,124,1.9,4.0,69,0.00,,,0.00,WUHU216DAVISVP2,2013-06-20 13:15:00,
2013-06-20 09:20:00,63.9,53.5,30.27,SE,145,1.0,4.0,69,0.00,,,0.00,WUHU216DAVISVP2,2013-06-20 13:20:00,
2013-06-20 09:25:00,63.9,53.1,30.27,ESE,117,2.0,4.0,68,0.00,,,0.00,WUHU216DAVISVP2,2013-06-20 13:25:00,
2013-06-20 09:30:00,64.8,53.2,30.27,ESE,122,2.7,6.0,66,0.00,,,0.00,WUHU216DAVISVP2,2013-06-20 13:30:00,
2013-06-20 09:35:00,65.0,53.4,30.27,SSW,204,1.0,6.0,66,0.00,,,0.00,WUHU216DAVISVP2,2013-06-20 13:35:00,
2013-06-20 09:40:00,66.0,54.9,30.26,NE,47,1.6,5.0,67,0.00,,,0.00,WUHU216DAVISVP2,2013-06-20 13:40:00,
2013-06-20 09:45:00,64.7,53.2,30.26,NE,41,2.0,5.0,66,0.00,,,0.00,WUHU216DAVISVP2,2013-06-20 13:45:00,
2013-06-20 09:50:00,64.3,53.3,30.26,NNE,27,2.1,5.0,67,0.00,,,0.00,WUHU216DAVISVP2,2013-06-20 13:50:00,
2013-06-20 09:55:00,65.0,54.3,30.26,ESE,106,3.0,4.0,68,0.00,,,0.00,WUHU216DAVISVP2,2013-06-20 13:55:00,
2013-06-20 10:00:00,66.4,54.0,30.26,East,93,1.3,4.0,64,0.00,,,0.00,WUHU216DAVISVP2,2013-06-20 14:00:00,
2013-06-20 10:05:00,67.1,53.8,30.26,ESE,113,5.0,6.0,62,0.00,,,0.00,WUHU216DAVISVP2,2013-06-20 14:05:00,
2013-06-20 10:10:00,66.1,54.2,30.26,South,183,3.0,6.0,65,0.00,,,0.00,WUHU216DAVISVP2,2013-06-20 14:10:00,
2013-06-20 10:15:00,66.7,53.4,30.26,SE,128,4.0,6.0,62,0.00,,,0.00,WUHU216DAVISVP2,2013-06-20 14:15:00,
2013-06-20 10:20:00,66.5,53.7,30.26,NE,34,2.0,5.0,63,0.00,,,0.00,WUHU216DAVISVP2,2013-06-20 14:20:00,
2013-06-20 10:25:00,66.5,54.5,30.26,SE,124,2.0,5.0,65,0.00,,,0.00,WUHU216DAVISVP2,2013-06-20 14:25:00,
2013-06-20 10:30:00,68.0,54.2,30.26,NE,39,1.7,5.0,61,0.00,,,0.00,WUHU216DAVISVP2,2013-06-20 14:30:00,
2013-06-20 10:35:00,67.7,53.0,30.26,North,1,3.1,6.0,59,0.00,,,0.00,WUHU216DAVISVP2,2013-06-20 14:35:00,
2013-06-20 10:40:00,67.6,52.9,30.26,North,9,1.5,6.0,59,0.00,,,0.00,WUHU216DAVISVP2,2013-06-20 14:40:00,
2013-06-20 10:45:00,68.1,52.9,30.26,ENE,61,2.8,5.0,58,0.00,,,0.00,WUHU216DAVISVP2,2013-06-20 14:45:00,
2013-06-20 10:50:00,68.0,52.2,30.26,ENE,65,2.9,5.0,57,0.00,,,0.00,WUHU216DAVISVP2,2013-06-20 14:50:00,
2013-06-20 10:55:00,68.4,53.5,30.26,North,1,1.3,5.0,59,0.00,,,0.00,WUHU216DAVISVP2,2013-06-20 14:55:00,
2013-06-20 11:00:00,69.5,54.5,30.26,SW,230,1.1,4.0,59,0.00,,,0.00,WUHU216DAVISVP2,2013-06-20 15:00:00,
2013-06-20 11:05:00,69.9,53.0,30.26,SSW,196,2.2,4.0,55,0.00,,,0.00,WUHU216DAVISVP2,2013-06-20 15:05:00,
2013-06-20 11:10:00,70.3,54.0,30.26,SE,139,4.0,5.0,56,0.00,,,0.00,WUHU216DAVISVP2,2013-06-20 15:10:00,
2013-06-20 11:15:00,70.7,53.9,30.26,SE,137,1.8,5.0,55,0.00,,,0.00,WUHU216DAVISVP2,2013-06-20 15:15:00,
2013-06-20 11:20:00,71.1,53.7,30.26,NE,39,4.0,6.0,54,0.00,,,0.00,WUHU216DAVISVP2,2013-06-20 15:20:00,
2013-06-20 11:25:00,70.1,53.3,30.26,ENE,76,2.8,6.0,55,0.00,,,0.00,WUHU216DAVISVP2,2013-06-20 15:25:00,
2013-06-20 11:30:00,69.6,52.8,30.26,ENE,71,2.2,6.0,55,0.00,,,0.00,WUHU216DAVISVP2,2013-06-20 15:30:00,
2013-06-20 11:35:00,69.7,52.9,30.25,East,88,2.3,6.0,55,0.00,,,0.00,WUHU216DAVISVP2,2013-06-20 15:35:00,
2013-06-20 11:40:00,70.1,53.8,30.25,NE,42,1.1,6.0,56,0.00,,,0.00,WUHU216DAVISVP2,2013-06-20 15:40:00,
2013-06-20 11:45:00,71.2,54.3,30.25,SE,133,1.9,5.0,55,0.00,,,0.00,WUHU216DAVISVP2,2013-06-20 15:45:00,
2013-06-20 11:50:00,71.8,54.4,30.25,South,184,1.1,5.0,54,0.00,,,0.00,WUHU216DAVISVP2,2013-06-20 15:50:00,
2013-06-20 11:55:00,71.0,53.0,30.25,ENE,73,4.0,6.0,53,0.00,,,0.00,WUHU216DAVISVP2,2013-06-20 15:55:00,
2013-06-20 12:00:00,70.6,53.1,30.25,East,86,1.8,6.0,54,0.00,,,0.00,WUHU216DAVISVP2,2013-06-20 16:00:00,
2013-06-20 12:05:00,70.9,53.0,30.25,North,355,2.3,6.0,53,0.00,,,0.00,WUHU216DAVISVP2,2013-06-20 16:05:00,
2013-06-20 12:10:00,71.7,54.3,30.25,SSW,202,1.2,5.0,54,0.00,,,0.00,WUHU216DAVISVP2,2013-06-20 16:10:00,
2013-06-20 12:15:00,73.0,54.4,30.25,ESE,105,3.0,6.0,52,0.00,,,0.00,WUHU216DAVISVP2,2013-06-20 16:15:00,
2013-06-20 12:20:00,73.2,53.5,30.25,SE,125,1.4,6.0,50,0.00,,,0.00,WUHU216DAVISVP2,2013-06-20 16:20:00,
2013-06-20 12:25:00,73.9,55.3,30.25,SSW,198,2.0,6.0,52,0.00,,,0.00,WUHU216DAVISVP2,2013-06-20 16:25:00,
2013-06-20 12:30:00,74.3,53.4,30.25,SSW,197,3.3,6.0,48,0.00,,,0.00,WUHU216DAVISVP2,2013-06-20 16:30:00,
2013-06-20 12:35:00,74.4,52.9,30.25,ESE,123,2.9,6.0,47,0.00,,,0.00,WUHU216DAVISVP2,2013-06-20 16:35:00,
2013-06-20 12:41:00,74.4,53.4,30.25,ENE,70,3.1,6.0,48,0.00,,,0.00,WUHU216DAVISVP2,2013-06-20 16:41:00,
2013-06-20 12:46:00,74.4,55.2,30.25,SW,217,2.4,7.0,51,0.00,,,0.00,WUHU216DAVISVP2,2013-06-20 16:46:00,
2013-06-20 12:50:00,75.6,54.0,30.24,WSW,246,1.0,7.0,47,0.00,,,0.00,WUHU216DAVISVP2,2013-06-20 16:50:00,
2013-06-20 12:55:00,75.3,54.9,30.24,ESE,107,3.0,7.0,49,0.00,,,0.00,WUHU216DAVISVP2,2013-06-20 16:55:00,
2013-06-20 13:00:00,74.7,54.9,30.24,SE,135,1.9,7.0,50,0.00,,,0.00,WUHU216DAVISVP2,2013-06-20 17:00:00,
2013-06-20 13:05:00,74.3,53.4,30.24,SE,125,4.6,9.0,48,0.00,,,0.00,WUHU216DAVISVP2,2013-06-20 17:05:00,
2013-06-20 13:10:00,73.7,54.4,30.23,ESE,121,4.0,9.0,51,0.00,,,0.00,WUHU216DAVISVP2,2013-06-20 17:10:00,
2013-06-20 13:15:00,74.1,56.0,30.23,SE,130,4.2,8.0,53,0.00,,,0.00,WUHU216DAVISVP2,2013-06-20 17:15:00,
2013-06-20 13:20:00,75.1,55.3,30.23,ESE,105,4.0,8.0,50,0.00,,,0.00,WUHU216DAVISVP2,2013-06-20 17:20:00,
2013-06-20 13:25:00,74.9,54.5,30.23,ESE,123,5.2,9.0,49,0.00,,,0.00,WUHU216DAVISVP2,2013-06-20 17:25:00,
2013-06-20 13:30:00,75.5,56.8,30.23,East,82,1.4,9.0,52,0.00,,,0.00,WUHU216DAVISVP2,2013-06-20 17:30:00,
2013-06-20 13:35:00,75.9,54.9,30.23,SE,133,2.5,8.0,48,0.00,,,0.00,WUHU216DAVISVP2,2013-06-20 17:35:00,
2013-06-20 13:40:00,75.3,54.3,30.23,SE,138,5.0,7.0,48,0.00,,,0.00,WUHU216DAVISVP2,2013-06-20 17:40:00,
2013-06-20 13:45:00,75.4,54.9,30.23,ESE,107,5.0,7.0,49,0.00,,,0.00,WUHU216DAVISVP2,2013-06-20 17:45:00,
2013-06-20 13:50:00,75.7,55.8,30.23,SE,140,3.4,7.0,50,0.00,,,0.00,WUHU216DAVISVP2,2013-06-20 17:50:00,
2013-06-20 13:55:00,75.9,54.3,30.23,ESE,105,7.0,8.0,47,0.00,,,0.00,WUHU216DAVISVP2,2013-06-20 17:55:00,
2013-06-20 14:00:00,75.5,55.1,30.23,SE,132,3.0,8.0,49,0.00,,,0.00,WUHU216DAVISVP2,2013-06-20 18:00:00,
2013-06-20 14:05:00,75.1,54.7,30.22,East,82,4.1,7.0,49,0.00,,,0.00,WUHU216DAVISVP2,2013-06-20 18:05:00,
2013-06-20 14:10:00,75.4,55.0,30.22,SE,141,2.5,7.0,49,0.00,,,0.00,WUHU216DAVISVP2,2013-06-20 18:10:00,
2013-06-20 14:15:00,76.0,54.9,30.22,SE,132,1.9,7.0,48,0.00,,,0.00,WUHU216DAVISVP2,2013-06-20 18:15:00,
2013-06-20 14:20:00,76.7,55.0,30.22,NNW,329,3.0,7.0,47,0.00,,,0.00,WUHU216DAVISVP2,2013-06-20 18:20:00,
2013-06-20 14:25:00,77.0,57.0,30.22,ESE,120,7.0,7.0,50,0.00,,,0.00,WUHU216DAVISVP2,2013-06-20 18:25:00,
2013-06-20 14:30:00,77.0,55.9,30.22,SE,136,1.4,9.0,48,0.00,,,0.00,WUHU216DAVISVP2,2013-06-20 18:30:00,
2013-06-20 14:36:00,77.3,56.1,30.22,East,80,3.0,9.0,48,0.00,,,0.00,WUHU216DAVISVP2,2013-06-20 18:36:00,
2013-06-20 14:40:00,78.2,57.6,30.21,ENE,61,1.4,9.0,49,0.00,,,0.00,WUHU216DAVISVP2,2013-06-20 18:40:00,
2013-06-20 14:46:00,78.5,56.6,30.22,NW,307,2.0,5.0,47,0.00,,,0.00,WUHU216DAVISVP2,2013-06-20 18:46:00,
2013-06-20 14:50:00,77.8,55.4,30.21,SSE,148,3.2,8.0,46,0.00,,,0.00,WUHU216DAVISVP2,2013-06-20 18:50:00,
2013-06-20 14:56:00,77.9,56.1,30.21,NE,56,3.0,8.0,47,0.00,,,0.00,WUHU216DAVISVP2,2013-06-20 18:56:00,
2013-06-20 15:01:00,77.7,56.5,30.21,NE,42,1.3,7.0,48,0.00,,,0.00,WUHU216DAVISVP2,2013-06-20 19:01:00,
2013-06-20 15:06:00,78.7,56.8,30.21,SW,222,2.3,6.0,47,0.00,,,0.00,WUHU216DAVISVP2,2013-06-20 19:06:00,
2013-06-20 15:11:00,78.7,55.6,30.21,SE,124,4.0,7.0,45,0.00,,,0.00,WUHU216DAVISVP2,2013-06-20 19:11:00,
2013-06-20 15:16:00,78.8,55.7,30.21,SSE,151,2.3,7.0,45,0.00,,,0.00,WUHU216DAVISVP2,2013-06-20 19:16:00,
2013-06-20 15:21:00,79.8,57.2,30.21,South,190,1.6,7.0,46,0.00,,,0.00,WUHU216DAVISVP2,2013-06-20 19:21:00,
2013-06-20 15:26:00,79.2,55.4,30.21,SE,129,3.3,7.0,44,0.00,,,0.00,WUHU216DAVISVP2,2013-06-20 19:26:00,
2013-06-20 15:31:00,78.8,56.3,30.20,South,170,4.0,6.0,46,0.00,,,0.00,WUHU216DAVISVP2,2013-06-20 19:31:00,
2013-06-20 15:36:00,78.5,55.4,30.21,East,101,2.4,8.0,45,0.00,,,0.00,WUHU216DAVISVP2,2013-06-20 19:36:00,
2013-06-20 15:41:00,79.0,56.5,30.21,SE,146,1.2,8.0,46,0.00,,,0.00,WUHU216DAVISVP2,2013-06-20 19:41:00,
2013-06-20 15:46:00,78.5,56.0,30.21,SE,134,2.0,8.0,46,0.00,,,0.00,WUHU216DAVISVP2,2013-06-20 19:46:00,
2013-06-20 15:51:00,79.0,55.8,30.20,East,88,1.3,8.0,45,0.00,,,0.00,WUHU216DAVISVP2,2013-06-20 19:51:00,
2013-06-20 15:56:00,78.7,55.6,30.20,East,83,3.0,6.0,45,0.00,,,0.00,WUHU216DAVISVP2,2013-06-20 19:56:00,
2013-06-20 16:01:00,78.4,56.6,30.20,ESE,117,3.0,9.0,47,0.00,,,0.00,WUHU216DAVISVP2,2013-06-20 20:01:00,
2013-06-20 16:06:00,78.8,56.3,30.20,ESE,102,7.0,9.0,46,0.00,,,0.00,WUHU216DAVISVP2,2013-06-20 20:06:00,
2013-06-20 16:11:00,77.9,56.1,30.20,ESE,121,4.1,10.0,47,0.00,,,0.00,WUHU216DAVISVP2,2013-06-20 20:11:00,
2013-06-20 16:16:00,78.4,55.9,30.20,SE,125,3.7,10.0,46,0.00,,,0.00,WUHU216DAVISVP2,2013-06-20 20:16:00,
2013-06-20 16:21:00,79.0,56.5,30.20,SE,135,3.0,10.0,46,0.00,,,0.00,WUHU216DAVISVP2,2013-06-20 20:21:00,
2013-06-20 16:26:00,79.3,57.4,30.19,ESE,107,3.0,10.0,47,0.00,,,0.00,WUHU216DAVISVP2,2013-06-20 20:26:00,
2013-06-20 16:31:00,79.6,57.7,30.19,East,100,3.0,6.0,47,0.00,,,0.00,WUHU216DAVISVP2,2013-06-20 20:31:00,
2013-06-20 16:36:00,78.9,56.4,30.19,NE,47,4.0,7.0,46,0.00,,,0.00,WUHU216DAVISVP2,2013-06-20 20:36:00,
2013-06-20 16:41:00,79.0,57.1,30.19,SSW,210,2.0,7.0,47,0.00,,,0.00,WUHU216DAVISVP2,2013-06-20 20:41:00,
2013-06-20 16:46:00,79.6,58.3,30.19,South,188,3.0,6.0,48,0.00,,,0.00,WUHU216DAVISVP2,2013-06-20 20:46:00,
2013-06-20 16:51:00,80.0,56.1,30.19,South,179,3.0,6.0,44,0.00,,,0.00,WUHU216DAVISVP2,2013-06-20 20:51:00,
2013-06-20 16:56:00,79.4,55.6,30.19,ESE,120,3.5,7.0,44,0.00,,,0.00,WUHU216DAVISVP2,2013-06-20 20:56:00,
2013-06-20 17:01:00,79.4,58.1,30.19,ESE,115,2.1,7.0,48,0.00,,,0.00,WUHU216DAVISVP2,2013-06-20 21:01:00,
2013-06-20 17:05:00,79.4,55.6,30.19,ESE,116,2.2,7.0,44,0.00,,,0.00,WUHU216DAVISVP2,2013-06-20 21:05:00,
2013-06-20 17:11:00,79.6,57.0,30.19,East,89,3.0,7.0,46,0.00,,,0.00,WUHU216DAVISVP2,2013-06-20 21:11:00,
2013-06-20 17:16:00,79.2,56.0,30.19,SE,143,5.0,7.0,45,0.00,,,0.00,WUHU216DAVISVP2,2013-06-20 21:16:00,
2013-06-20 17:20:00,78.8,56.3,30.19,ESE,117,4.0,7.0,46,0.00,,,0.00,WUHU216DAVISVP2,2013-06-20 21:20:00,
2013-06-20 17:25:00,79.0,57.7,30.19,ESE,117,4.0,7.0,48,0.00,,,0.00,WUHU216DAVISVP2,2013-06-20 21:25:00,
2013-06-20 17:31:00,78.3,55.8,30.18,ESE,121,3.7,7.0,46,0.00,,,0.00,WUHU216DAVISVP2,2013-06-20 21:31:00,
2013-06-20 17:35:00,78.3,56.5,30.18,SE,127,2.0,6.0,47,0.00,,,0.00,WUHU216DAVISVP2,2013-06-20 21:35:00,
2013-06-20 17:40:00,78.9,57.6,30.18,ESE,114,1.2,6.0,48,0.00,,,0.00,WUHU216DAVISVP2,2013-06-20 21:40:00,
2013-06-20 17:46:00,78.8,56.9,30.18,ESE,122,2.0,6.0,47,0.00,,,0.00,WUHU216DAVISVP2,2013-06-20 21:46:00,
2013-06-20 17:51:00,79.1,57.8,30.17,SSW,205,2.0,6.0,48,0.00,,,0.00,WUHU216DAVISVP2,2013-06-20 21:51:00,
2013-06-20 17:56:00,79.5,56.9,30.17,ESE,113,1.6,6.0,46,0.00,,,0.00,WUHU216DAVISVP2,2013-06-20 21:56:00,
2013-06-20 18:01:00,79.9,59.1,30.17,SSW,210,2.0,6.0,49,0.00,,,0.00,WUHU216DAVISVP2,2013-06-20 22:01:00,
2013-06-20 18:06:00,80.9,58.8,30.17,SW,221,2.0,6.0,47,0.00,,,0.00,WUHU216DAVISVP2,2013-06-20 22:06:00,
2013-06-20 18:11:00,80.9,58.8,30.17,South,173,1.9,4.0,47,0.00,,,0.00,WUHU216DAVISVP2,2013-06-20 22:11:00,
2013-06-20 18:16:00,80.1,58.1,30.18,South,174,1.5,9.0,47,0.00,,,0.00,WUHU216DAVISVP2,2013-06-20 22:16:00,
2013-06-20 18:21:00,80.3,58.3,30.18,SSW,196,3.0,9.0,47,0.00,,,0.00,WUHU216DAVISVP2,2013-06-20 22:21:00,
2013-06-20 18:26:00,80.3,58.3,30.18,ESE,121,3.2,8.0,47,0.00,,,0.00,WUHU216DAVISVP2,2013-06-20 22:26:00,
2013-06-20 18:31:00,79.2,57.9,30.18,ESE,114,1.4,6.0,48,0.00,,,0.00,WUHU216DAVISVP2,2013-06-20 22:31:00,
2013-06-20 18:36:00,79.1,58.3,30.18,SE,129,2.5,5.0,49,0.00,,,0.00,WUHU216DAVISVP2,2013-06-20 22:36:00,
2013-06-20 18:41:00,78.9,57.6,30.18,ESE,122,2.6,5.0,48,0.00,,,0.00,WUHU216DAVISVP2,2013-06-20 22:41:00,
2013-06-20 18:46:00,79.1,59.0,30.18,WSW,240,1.0,5.0,50,0.00,,,0.00,WUHU216DAVISVP2,2013-06-20 22:46:00,
2013-06-20 18:51:00,79.7,58.3,30.18,East,101,1.0,5.0,48,0.00,,,0.00,WUHU216DAVISVP2,2013-06-20 22:51:00,
2013-06-20 18:56:00,79.9,59.1,30.18,SSW,208,1.0,5.0,49,0.00,,,0.00,WUHU216DAVISVP2,2013-06-20 22:56:00,
2013-06-20 19:01:00,80.9,59.5,30.18,SE,124,1.0,3.0,48,0.00,,,0.00,WUHU216DAVISVP2,2013-06-20 23:01:00,
2013-06-20 19:06:00,81.1,59.6,30.18,South,181,3.0,3.0,48,0.00,,,0.00,WUHU216DAVISVP2,2013-06-20 23:06:00,
2013-06-20 19:11:00,80.2,58.8,30.18,ESE,119,1.4,3.0,48,0.00,,,0.00,WUHU216DAVISVP2,2013-06-20 23:11:00,
2013-06-20 19:16:00,79.6,59.4,30.18,SSE,160,1.0,3.0,50,0.00,,,0.00,WUHU216DAVISVP2,2013-06-20 23:16:00,
2013-06-20 19:21:00,79.5,59.9,30.18,SSE,157,0.0,3.0,51,0.00,,,0.00,WUHU216DAVISVP2,2013-06-20 23:21:00,
2013-06-20 19:26:00,79.7,60.1,30.18,SE,124,0.0,3.0,51,0.00,,,0.00,WUHU216DAVISVP2,2013-06-20 23:26:00,
2013-06-20 19:31:00,79.8,60.2,30.18,SE,124,1.0,2.0,51,0.00,,,0.00,WUHU216DAVISVP2,2013-06-20 23:31:00,
2013-06-20 19:36:00,79.6,60.0,30.18,SE,126,1.2,2.0,51,0.00,,,0.00,WUHU216DAVISVP2,2013-06-20 23:36:00,
2013-06-20 19:41:00,79.1,60.1,30.18,ESE,118,0.0,2.0,52,0.00,,,0.00,WUHU216DAVISVP2,2013-06-20 23:41:00,
2013-06-20 19:46:00,78.7,60.3,30.18,ESE,117,0.0,2.0,53,0.00,,,0.00,WUHU216DAVISVP2,2013-06-20 23:46:00,
2013-06-20 19:51:00,78.5,60.6,30.17,SE,127,1.0,2.0,54,0.00,,,0.00,WUHU216DAVISVP2,2013-06-20 23:51:00,
2013-06-20 19:56:00,77.8,60.0,30.17,SSE,147,1.3,2.0,54,0.00,,,0.00,WUHU216DAVISVP2,2013-06-20 23:56:00,
2013-06-20 20:01:00,76.6,60.2,30.17,SE,129,1.0,2.0,57,0.00,,,0.00,WUHU216DAVISVP2,2013-06-21 00:01:00,
2013-06-20 20:06:00,75.7,59.9,30.18,SE,130,0.0,2.0,58,0.00,,,0.00,WUHU216DAVISVP2,2013-06-21 00:06:00,
2013-06-20 20:11:00,74.7,59.9,30.18,SE,129,0.0,2.0,60,0.00,,,0.00,WUHU216DAVISVP2,2013-06-21 00:11:00,
2013-06-20 20:16:00,73.5,60.1,30.18,SE,130,0.0,1.0,63,0.00,,,0.00,WUHU216DAVISVP2,2013-06-21 00:16:00,
2013-06-20 20:21:00,72.5,60.5,30.18,SE,129,0.0,1.0,66,0.00,,,0.00,WUHU216DAVISVP2,2013-06-21 00:21:00,
2013-06-20 20:26:00,71.4,59.9,30.18,SE,129,0.0,0.0,67,0.00,,,0.00,WUHU216DAVISVP2,2013-06-21 00:26:00,
2013-06-20 20:31:00,70.6,60.9,30.18,SE,129,0.0,0.0,71,0.00,,,0.00,WUHU216DAVISVP2,2013-06-21 00:31:00,
2013-06-20 20:36:00,69.7,60.4,30.18,SE,129,0.0,0.0,72,0.00,,,0.00,WUHU216DAVISVP2,2013-06-21 00:36:00,
2013-06-20 20:41:00,68.8,60.3,30.18,SE,129,0.0,0.0,74,0.00,,,0.00,WUHU216DAVISVP2,2013-06-21 00:41:00,
2013-06-20 20:46:00,68.0,60.3,30.18,SE,130,0.0,0.0,76,0.00,,,0.00,WUHU216DAVISVP2,2013-06-21 00:46:00,
2013-06-20 20:51:00,67.3,59.9,30.18,SE,130,0.0,0.0,77,0.00,,,0.00,WUHU216DAVISVP2,2013-06-21 00:51:00,
2013-06-20 20:56:00,66.8,59.8,30.18,SE,129,0.0,0.0,78,0.00,,,0.00,WUHU216DAVISVP2,2013-06-21 00:56:00,
2013-06-20 21:01:00,66.4,60.1,30.18,SE,129,0.0,0.0,80,0.00,,,0.00,WUHU216DAVISVP2,2013-06-21 01:01:00,
2013-06-20 21:06:00,65.8,59.9,30.18,SE,129,0.0,0.0,81,0.00,,,0.00,WUHU216DAVISVP2,2013-06-21 01:06:00,
2013-06-20 21:11:00,65.4,59.5,30.18,SE,129,0.0,0.0,81,0.00,,,0.00,WUHU216DAVISVP2,2013-06-21 01:11:00,
2013-06-20 21:16:00,65.0,59.4,30.19,SE,130,0.0,0.0,82,0.00,,,0.00,WUHU216DAVISVP2,2013-06-21 01:16:00,
2013-06-20 21:21:00,64.6,59.7,30.19,SE,130,0.0,0.0,84,0.00,,,0.00,WUHU216DAVISVP2,2013-06-21 01:21:00,
2013-06-20 21:26:00,64.3,59.4,30.19,SE,130,0.0,0.0,84,0.00,,,0.00,WUHU216DAVISVP2,2013-06-21 01:26:00,
2013-06-20 21:31:00,63.9,59.0,30.19,SE,130,0.0,0.0,84,0.00,,,0.00,WUHU216DAVISVP2,2013-06-21 01:31:00,
2013-06-20 21:36:00,63.6,59.3,30.19,SE,130,0.0,0.0,86,0.00,,,0.00,WUHU216DAVISVP2,2013-06-21 01:36:00,
2013-06-20 21:41:00,63.2,59.3,30.19,SE,129,0.0,0.0,87,0.00,,,0.00,WUHU216DAVISVP2,2013-06-21 01:41:00,
2013-06-20 21:46:00,62.8,59.2,30.19,SE,130,0.0,0.0,88,0.00,,,0.00,WUHU216DAVISVP2,2013-06-21 01:46:00,
2013-06-20 21:51:00,62.2,58.9,30.19,SE,130,0.0,0.0,89,0.00,,,0.00,WUHU216DAVISVP2,2013-06-21 01:51:00,
2013-06-20 21:56:00,62.1,58.8,30.19,SE,130,0.0,0.0,89,0.00,,,0.00,WUHU216DAVISVP2,2013-06-21 01:56:00,
2013-06-20 22:01:00,61.8,58.5,30.19,SE,130,0.0,0.0,89,0.00,,,0.00,WUHU216DAVISVP2,2013-06-21 02:01:00,
2013-06-20 22:06:00,61.6,58.6,30.19,SE,129,0.0,0.0,90,0.00,,,0.00,WUHU216DAVISVP2,2013-06-21 02:06:00,
2013-06-20 22:11:00,61.3,58.3,30.19,SE,130,0.0,0.0,90,0.00,,,0.00,WUHU216DAVISVP2,2013-06-21 02:11:00,
2013-06-20 22:16:00,61.0,58.0,30.19,SE,130,0.0,0.0,90,0.00,,,0.00,WUHU216DAVISVP2,2013-06-21 02:16:00,
2013-06-20 22:21:00,60.7,58.1,30.19,SE,130,0.0,0.0,91,0.00,,,0.00,WUHU216DAVISVP2,2013-06-21 02:21:00,
2013-06-20 22:26:00,60.5,57.9,30.19,SE,130,0.0,0.0,91,0.00,,,0.00,WUHU216DAVISVP2,2013-06-21 02:26:00,
2013-06-20 22:31:00,60.3,57.9,30.19,SE,130,0.0,0.0,92,0.00,,,0.00,WUHU216DAVISVP2,2013-06-21 02:31:00,
2013-06-20 22:36:00,60.0,57.6,30.19,SE,129,0.0,0.0,92,0.00,,,0.00,WUHU216DAVISVP2,2013-06-21 02:36:00,
2013-06-20 22:41:00,59.9,57.5,30.20,SE,130,0.0,0.0,92,0.00,,,0.00,WUHU216DAVISVP2,2013-06-21 02:41:00,
2013-06-20 22:46:00,59.7,57.3,30.20,SE,130,0.0,0.0,92,0.00,,,0.00,WUHU216DAVISVP2,2013-06-21 02:46:00,
2013-06-20 22:51:00,59.5,57.4,30.20,SE,129,0.0,1.0,93,0.00,,,0.00,WUHU216DAVISVP2,2013-06-21 02:51:00,
2013-06-20 22:56:00,59.3,57.2,30.20,SE,129,0.0,1.0,93,0.00,,,0.00,WUHU216DAVISVP2,2013-06-21 02:56:00,
2013-06-20 23:01:00,59.1,57.0,30.20,SE,130,0.0,1.0,93,0.00,,,0.00,WUHU216DAVISVP2,2013-06-21 03:01:00,
2013-06-20 23:06:00,59.0,57.2,30.20,SE,130,0.0,1.0,94,0.00,,,0.00,WUHU216DAVISVP2,2013-06-21 03:06:00,
2013-06-20 23:11:00,58.9,57.1,30.20,SE,130,0.0,0.0,94,0.00,,,0.00,WUHU216DAVISVP2,2013-06-21 03:11:00,
2013-06-20 23:16:00,58.8,57.0,30.20,SE,130,0.0,0.0,94,0.00,,,0.00,WUHU216DAVISVP2,2013-06-21 03:16:00,
2013-06-20 23:21:00,58.8,57.0,30.21,SE,130,0.0,0.0,94,0.00,,,0.00,WUHU216DAVISVP2,2013-06-21 03:21:00,
2013-06-20 23:26:00,58.6,56.8,30.21,SE,130,0.0,0.0,94,0.00,,,0.00,WUHU216DAVISVP2,2013-06-21 03:26:00,
2013-06-20 23:31:00,58.5,56.7,30.21,SE,136,1.0,1.0,94,0.00,,,0.00,WUHU216DAVISVP2,2013-06-21 03:31:00,
2013-06-20 23:36:00,58.3,56.8,30.21,South,169,0.0,1.0,95,0.00,,,0.00,WUHU216DAVISVP2,2013-06-21 03:36:00,
2013-06-20 23:41:00,58.2,56.7,30.21,South,169,0.0,1.0,95,0.00,,,0.00,WUHU216DAVISVP2,2013-06-21 03:41:00,
2013-06-20 23:46:00,58.1,56.6,30.22,South,169,0.0,1.0,95,0.00,,,0.00,WUHU216DAVISVP2,2013-06-21 03:46:00,
2013-06-20 23:51:00,58.1,56.7,30.22,South,169,0.0,0.0,95,0.00,,,0.00,WUHU216DAVISVP2,2013-06-21 03:51:00,
2013-06-20 23:56:00,58.2,56.8,30.22,South,169,0.0,0.0,95,0.00,,,0.00,WUHU216DAVISVP2,2013-06-21 03:56:00,